This demonstration page uses our WeatherBlox Daily Observations layout. Learn more.

Left ArrowRight Arrow

36.19886, -115.1175

Hourly Observations for July 14, 2015

Temp ( °F °C ) Dew Point ( °F °C ) Humidity (%) Winds ( mph kmh ) Pressure ( in mb ) Visibility ( mi km ) Precip ( " mm )
12:53 am 00:53 Clear 88 31.1 26 -3.3 10 10 Calm 29.76 1008 10 16 0.00 0.00
1:53 am 01:53 Clear 83 28.3 29 -1.7 14 14 VRB 3 6 29.76 1008 10 16 0.00 0.00
2:53 am 02:53 Clear 82 27.8 29 -1.7 14 14 NNW 3 6 29.76 1008 10 16 0.00 0.00
3:53 am 03:53 Clear 78 25.6 33 0.6 19 19 N 3 6 29.77 1008 10 16 0.00 0.00
4:53 am 04:53 Clear 77 25 34 1.1 21 21 NW 6 9 29.77 1008 10 16 0.00 0.00
5:53 am 05:53 Sunny 76 24.4 31 -0.6 19 19 NW 3 6 29.79 1009 10 16 0.00 0.00
6:53 am 06:53 Sunny 79 26.1 33 0.6 19 19 Calm 29.80 1009 10 16 0.00 0.00
7:53 am 07:53 Sunny 83 28.3 36 2.2 19 19 E 3 6 29.82 1010 10 16 0.00 0.00
8:53 am 08:53 Sunny 88 31.1 38 3.3 17 17 Calm 29.82 1010 10 16 0.00 0.00
9:53 am 09:53 Sunny 94 34.4 39 3.9 15 15 S 13 20 29.80 1009 10 16 0.00 0.00
10:53 am 10:53 Sunny 96 35.6 39 3.9 14 14 S 23 37 29.80 1009 10 16 0.00 0.00
11:53 am 11:53 Sunny 98 36.7 39 3.9 13 13 ESE 15 24 29.79 1009 10 16 0.00 0.00
12:53 pm 12:53 Sunny 99 37.2 40 4.4 13 13 SSE 9 15 29.75 1008 10 16 0.00 0.00
1:53 pm 13:53 Sunny 102 38.9 36 2.2 10 10 SSW 22 35 29.72 1007 10 16 0.00 0.00
2:53 pm 14:53 Sunny 102 38.9 36 2.2 10 10 S 14 22 29.70 1006 10 16 0.00 0.00
3:53 pm 15:53 Sunny 103 39.4 36 2.2 10 10 SW 18 30 29.68 1005 10 16 0.00 0.00
4:53 pm 16:53 Sunny 102 38.9 33 0.6 9 9 WSW 14 22 29.66 1005 10 16 0.00 0.00
5:53 pm 17:53 Sunny 101 38.3 28 -2.2 8 8 SSW 16 26 29.66 1005 10 16 0.00 0.00
6:53 pm 18:53 Sunny 99 37.2 26 -3.3 7 7 WSW 13 20 29.67 1005 10 16 0.00 0.00
7:53 pm 19:53 Sunny 96 35.6 28 -2.2 9 9 WSW 10 17 29.68 1005 10 16 0.00 0.00
8:53 pm 20:53 Clear 95 35 29 -1.7 9 9 W 7 11 29.69 1005 10 16 0.00 0.00
9:53 pm 21:53 Clear 93 33.9 31 -0.6 11 11 SW 3 6 29.70 1006 10 16 0.00 0.00
10:53 pm 22:53 Clear 90 32.2 34 1.1 14 14 SW 6 9 29.70 1006 10 16 0.00 0.00
11:53 pm 23:53 Clear 88 31.1 33 0.6 14 14 WSW 6 9 29.71 1006 10 16 0.00 0.00

Powered by AerisWeather